METOP-C (43689 NORAD) Tracking and Keplerian Element Data

This shows tracking and keplerian element data for the satellite.

Feedback or suggestion? Click here.




ElementValue
Catalog43689
NameMETOP-C
Epoch Orbit2327
Epoch Day109.86978346
Epoch Year2019
RAAN170.3172
Inclination98.7111
Eccentricity0.0003375
Argument of Perigee123.8856
Mean Anonmoly236.2642
Mean Motion14.21482996
Decay Rate-4.4E-07
L11 43689U 18087A 19109.86978346 -.00000044 00000-0 00000+0 0 9993
L22 43689 98.7111 170.3172 0003375 123.8856 236.2642 14.21482996 23276

Live tracking and technical data element details for METOP-C (NORAD 43689). METOP-C can be tracked NOW for your location showing map with azimuth and elevation plus other details from your city location.

Track the satellite on the map from your city or location and see movement details for azimuth, elevation, latitude, longitude, range, height, and movement on the map or in text.







IsCatalogInMostPopularTable: catalog: 43689, numindb: 101
Update: records affected: 1



GetName: 43689 METOP-C

Hit Count: updated at: Sat, 20 Apr 2019 20:10:04 GMT